This is the latest recevied weather packets stored in our database for station/object KM8V-8. If no packets are shown the sender has not sent any weather packets the latest 10 day(s).
| Time | Temp. | Humidity | Pressure | Rain* | Wind** | Luminosity | Snow |
|---|---|---|---|---|---|---|---|
| 1777655429 | 5.56° C | 96% | 1012.5 hPa | 0.25 mm | - | 147 W/m² | - |
| 1777655129 | 5.56° C | 96% | 1012.5 hPa | 0.25 mm | - | 139 W/m² | - |
| 1777654831 | 5.56° C | 97% | 1012.5 hPa | 0.25 mm | - | 150 W/m² | - |
| 1777654529 | 5.56° C | 97% | 1012.5 hPa | 0.51 mm | - | 166 W/m² | - |
| 1777654230 | 5.56° C | 97% | 1012.6 hPa | 0.51 mm | - | 194 W/m² | - |
| 1777653929 | 5.56° C | 97% | 1012.5 hPa | 0.76 mm | - | 289 W/m² | - |
| 1777653629 | 5.56° C | 97% | 1012.5 hPa | 0.76 mm | - | 228 W/m² | - |
| 1777653329 | 5.56° C | 97% | 1012.6 hPa | 1.02 mm | - | 167 W/m² | - |
| 1777653021 | 5.56° C | 97% | 1012.6 hPa | 1.02 mm | - | 149 W/m² | - |
| 1777652720 | 5.56° C | 97% | 1012.4 hPa | 1.02 mm | - | 227 W/m² | - |
| 1777652417 | 5.56° C | 97% | 1012.5 hPa | 1.02 mm | - | 195 W/m² | - |
| 1777652116 | 5.56° C | 98% | 1012.5 hPa | 1.27 mm | - | 138 W/m² | - |
| 1777651817 | 5.56° C | 98% | 1012.5 hPa | 1.52 mm | - | 219 W/m² | - |
| 1777651530 | 5.56° C | 98% | 1012.6 hPa | 1.78 mm | - | 190 W/m² | - |
| 1777651231 | 5.56° C | 97% | 1012.6 hPa | 2.03 mm | - | 165 W/m² | - |
| 1777650931 | 5.56° C | 97% | 1012.7 hPa | 2.29 mm | - | 211 W/m² | - |
| 1777650618 | 5.56° C | 97% | 1012.7 hPa | 2.29 mm | - | 199 W/m² | - |
| 1777650331 | 5.56° C | 97% | 1012.6 hPa | 2.29 mm | - | 158 W/m² | - |
| 1777650031 | 5.56° C | 97% | 1012.6 hPa | 2.29 mm | - | 134 W/m² | - |
| 1777649721 | 5.56° C | 97% | 1012.7 hPa | 2.29 mm | - | 122 W/m² | - |
| 1777649420 | 5.56° C | 97% | 1012.7 hPa | 2.54 mm | - | 115 W/m² | - |
| 1777649118 | 5.56° C | 97% | 1012.7 hPa | 2.79 mm | - | 79 W/m² | - |
| 1777648817 | 5.56° C | 97% | 1012.7 hPa | 2.79 mm | - | 56 W/m² | - |
| 1777648518 | 5.56° C | 97% | 1012.7 hPa | 2.54 mm | - | 82 W/m² | - |
| 1777648221 | 5.56° C | 97% | 1012.6 hPa | 2.54 mm | - | 124 W/m² | - |
* Rain latest hour (hover to see other rain measurements)
** Current wind speed in m/s (hover to see current wind gust speed)